Temperature
7 7 8 7 8 8 9 9 9 9 9 9 8 8 8 9 9 9 10 10 11 11 12 12 12 13 13 13 14 14 14 14 14 15 15 15 15 16 16 16 16 16 16
6 7 7 7 7 8 8 8 8 8 8 8 8 8 8 7 7 7 8 8 9 9 10 10 11 11 12 12 13 13 14 14 14 15 15 15 15 15 16 16 16 16 16
7 7 7 7 7 7 8 8 8 8 8 7 7 7 7 7 7 7 7 7 7 7 8 8 9 10 10 11 12 12 13 13 14 14 15 14 14 15 15 15 16 16 16
7 7 7 7 7 7 7 7 7 7 7 6 6 6 6 6 6 6 6 6 6 6 6 6 7 8 8 9 10 11 11 12 13 14 14 14 14 14 14 15 15 15 16
7 7 7 7 7 7 7 6 6 5 5 5 5 5 5 5 5 5 5 5 5 5 5 5 6 6 7 8 8 9 10 11 12 12 13 13 14 14 14 14 15 15 15
7 7 7 7 7 6 6 6 5 5 4 4 5 5 5 5 5 5 5 5 4 4 4 4 5 5 5 6 7 8 8 9 11 11 12 12 13 13 14 14 14 15 15
7 7 7 7 7 6 5 5 5 4 4 4 4 4 4 4 4 4 4 4 4 4 4 4 3 4 4 5 6 6 7 8 9 9 11 11 12 12 13 13 14 14 15
6 7 7 6 6 5 5 4 4 4 4 4 4 4 4 4 4 4 4 4 4 4 3 3 3 3 3 3 4 5 6 7 8 8 9 10 11 11 12 12 13 14 14
6 6 6 6 5 5 4 4 4 4 4 4 4 4 4 4 4 3 3 3 3 3 3 3 3 3 3 3 3 4 5 6 6 7 8 9 9 10 11 11 12 13 13
6 6 6 5 5 4 4 4 4 4 4 4 4 3 3 3 3 3 3 3 2 2 2 2 2 2 3 3 3 3 4 4 5 5 6 7 8 9 10 10 11 12 12
5 5 5 5 4 4 3 3 3 3 3 3 3 3 3 3 2 2 2 2 2 2 1 1 1 1 2 2 2 2 3 3 3 4 5 6 7 8 9 9 10 10 11
4 4 5 4 4 3 3 3 3 3 2 2 2 2 2 1 1 1 1 1 1 1 1 0 0 0 0 0 1 1 1 1 2 3 3 5 6 6 7 8 9 10 10
4 4 4 3 3 2 2 2 2 2 1 1 1 1 0 0 0 -0 -0 -0 -1 -1 -1 -1 -1 -2 -2 -2 -1 -1 -1 -0 0 1 2 4 4 5 5 6 8 9 10
3 4 3 2 2 2 2 1 1 1 0 0 -0 -1 -1 -1 -2 -2 -2 -3 -3 -3 -3 -4 -4 -4 -4 -4 -3 -3 -2 -2 -2 -1 1 2 3 4 5 5 6 8 9
3 3 2 2 2 1 1 1 0 -0 -0 -1 -1 -2 -2 -3 -4 -5 -5 -5 -6 -6 -6 -6 -6 -6 -6 -6 -5 -5 -4 -3 -2 -2 -1 1 2 3 4 4 5 6 7
3 2 2 1 1 1 1 0 -0 -1 -1 -2 -2 -3 -4 -5 -6 -6 -7 -7 -7 -8 -8 -8 -8 -8 -8 -7 -7 -6 -5 -4 -4 -3 -2 -1 1 2 3 3 4 4 6
2 2 1 1 1 1 0 0 -1 -1 -2 -2 -3 -4 -5 -6 -6 -7 -8 -8 -9 -9 -9 -9 -9 -9 -9 -9 -8 -8 -7 -6 -5 -4 -3 -3 -1 0 1 2 3 3 4
2 1 1 1 0 0 0 -0 -1 -2 -2 -3 -4 -5 -6 -6 -7 -8 -9 -9 -10 -10 -10 -10 -10 -10 -10 -10 -10 -9 -8 -7 -6 -5 -4 -3 -2 -1 -1 0 1 1 2
1 1 1 0 0 0 -0 -1 -1 -2 -3 -4 -5 -6 -6 -7 -8 -9 -10 -10 -11 -11 -11 -11 -11 -11 -11 -11 -10 -10 -9 -8 -7 -5 -4 -4 -3 -3 -2 -2 -1 0 2
1 1 0 -0 -0 -0 -1 -1 -2 -3 -3 -4 -5 -6 -7 -8 -9 -10 -11 -11 -11 -11 -11 -11 -11 -11 -11 -11 -11 -11 -10 -9 -7 -6 -5 -4 -4 -4 -3 -3 -3 -1 0
1 0 -0 -1 -1 -1 -1 -2 -2 -3 -4 -5 -6 -7 -8 -9 -10 -11 -11 -11 -11 -12 -12 -12 -12 -12 -12 -12 -12 -11 -10 -8 -7 -6 -6 -5 -4 -4 -4 -4 -3 -2 -1
1 0 -0 -1 -1 -2 -2 -3 -3 -4 -5 -7 -8 -8 -9 -9 -10 -11 -11 -11 -12 -12 -12 -12 -12 -12 -12 -12 -12 -12 -11 -9 -6 -7 -6 -5 -5 -5 -5 -4 -4 -3 -2
1 0 -0 -1 -1 -2 -2 -3 -4 -5 -6 -7 -8 -8 -9 -10 -10 -11 -11 -11 -12 -12 -12 -12 -12 -13 -13 -13 -13 -12 -12 -10 -11 -9 -7 -6 -6 -6 -5 -5 -4 -3 -2
1 0 -1 -1 -2 -2 -3 -3 -4 -6 -7 -7 -8 -9 -9 -10 -10 -11 -11 -11 -12 -12 -12 -12 -13 -13 -13 -13 -13 -13 -12 -12 -12 -10 -8 -7 -7 -6 -6 -5 -4 -4 -3
1 -0 -1 -1 -2 -2 -3 -4 -4 -6 -7 -7 -9 -9 -10 -10 -10 -11 -11 -11 -12 -12 -12 -12 -12 -13 -13 -13 -13 -13 -13 -12 -12 -11 -10 -8 -7 -7 -6 -5 -5 -4 -3
0 -0 -1 -1 -2 -3 -3 -4 -5 -6 -7 -8 -9 -10 -10 -10 -10 -10 -11 -11 -11 -11 -11 -12 -12 -12 -12 -12 -13 -13 -12 -12 -12 -11 -10 -9 -8 -7 -6 -6 -5 -4 -3
Wind_Speed
13 19 23 24 24 25 26 26 27 27 27 28 28 29 29 29 29 29 30 30 30 29 29 29 28 28 28 28 28 28 27 27 26 26 25 22 17 15 14 13 11 10 7
13 17 20 23 23 24 25 26 26 27 27 28 28 29 29 29 29 29 29 29 29 29 29 29 29 28 28 28 27 27 27 27 27 27 26 21 15 14 14 14 12 12 9
14 16 19 22 22 23 25 25 26 27 27 28 28 29 29 29 29 29 29 29 29 28 28 28 28 28 28 28 27 27 27 27 28 28 25 17 16 14 14 15 15 14 14
13 15 18 21 21 23 24 25 25 26 26 27 28 28 29 29 29 29 29 29 28 28 28 28 28 28 28 28 28 27 27 27 28 27 19 17 17 16 17 18 17 16 16
12 14 18 21 21 22 23 24 24 25 25 26 27 27 28 28 29 28 29 29 28 28 28 28 28 28 28 28 28 28 27 27 28 23 18 18 18 17 20 20 19 19 17
12 15 18 21 21 21 22 23 23 24 24 25 26 27 27 28 28 28 28 28 28 28 28 28 28 28 28 28 28 28 28 28 27 19 18 18 17 19 23 23 21 20 19
12 14 16 19 20 20 22 22 23 23 24 25 26 27 27 27 28 28 28 28 28 28 28 28 28 28 28 28 28 27 27 28 24 20 18 18 17 21 24 24 24 22 21
11 12 14 17 18 19 20 21 21 22 23 24 25 26 27 26 27 27 27 28 28 29 29 29 29 28 28 28 27 27 27 27 24 20 18 18 18 21 24 25 25 24 22
10 12 14 15 16 16 17 19 20 21 22 22 23 25 26 25 25 26 26 28 28 29 29 29 29 29 29 28 27 26 27 27 22 17 19 16 18 22 25 26 26 25 24
9 11 14 15 15 15 14 16 18 19 21 21 21 24 24 22 23 23 24 27 27 28 28 28 29 30 29 28 26 25 27 23 17 19 17 16 20 24 25 26 26 26 25
8 10 12 14 15 15 14 14 16 17 19 20 20 23 22 20 20 21 24 26 26 27 27 27 28 28 28 25 24 25 23 16 20 18 16 19 23 25 26 26 26 26 26
9 10 11 14 14 14 13 13 14 15 16 17 18 20 19 19 18 20 22 23 25 25 25 24 26 25 22 20 22 23 17 20 19 17 17 22 25 26 26 26 26 26 26
7 9 10 12 13 14 12 12 12 12 13 15 17 18 19 18 17 18 19 20 21 22 20 23 22 20 20 21 21 21 21 20 17 17 19 24 26 27 27 27 27 27 26
7 8 9 10 12 13 13 11 11 12 12 13 15 17 17 16 17 18 17 19 19 18 20 20 19 21 22 22 22 22 22 19 19 19 20 25 27 27 28 28 27 27 27
6 8 9 9 11 12 12 11 11 12 13 14 13 15 17 16 16 18 18 18 19 19 19 20 21 22 22 21 21 22 22 23 23 22 20 24 27 28 28 27 27 26 26
5 7 8 9 11 12 12 12 11 12 13 13 13 15 16 16 17 18 18 18 19 19 19 21 22 21 20 19 20 22 23 23 22 22 22 23 26 26 26 26 25 25 25
4 5 7 9 11 12 12 12 11 12 13 12 13 14 16 17 18 19 18 18 19 20 21 20 21 20 18 19 19 21 20 22 22 23 23 21 21 22 23 23 22 23 23
2 4 6 8 11 12 13 12 11 12 13 12 13 14 16 18 19 19 17 18 19 20 20 18 17 16 17 17 18 17 18 19 22 23 22 20 18 17 17 18 18 19 20
1 4 6 8 11 12 13 12 11 11 12 12 12 13 17 18 19 19 17 18 20 19 18 17 15 16 18 18 18 18 18 18 19 20 19 18 17 15 14 14 15 17 18
0 3 6 8 10 12 11 11 10 11 11 11 12 14 17 17 19 18 17 19 19 17 15 16 18 18 17 18 18 19 18 20 18 17 16 13 12 12 11 12 13 13 16
1 3 5 8 9 10 8 9 9 10 10 11 12 15 16 17 18 18 17 18 18 15 16 19 18 20 18 17 17 18 19 18 17 12 10 10 10 9 10 12 12 13 13
2 3 5 7 8 9 9 9 9 10 9 10 12 14 15 17 18 17 18 18 18 16 18 19 19 17 17 15 16 17 14 15 5 10 10 10 10 8 10 12 13 14 14
2 2 4 6 7 9 10 9 9 8 8 8 11 11 15 18 18 18 19 19 20 18 16 19 19 20 17 17 14 12 10 10 15 11 12 9 9 10 12 12 13 14 15
2 1 3 5 7 8 9 9 11 10 11 12 11 11 17 17 18 18 19 20 20 18 18 18 18 17 18 16 15 13 13 14 12 10 10 12 15 14 14 12 13 14 14
2 1 3 5 6 7 9 10 10 10 10 10 12 13 14 16 17 18 20 20 20 18 18 19 19 18 15 15 15 14 14 13 14 14 16 15 13 13 13 13 13 12 13
3 2 3 4 5 7 8 9 10 12 13 13 14 13 13 12 15 18 21 20 20 19 19 19 18 19 16 16 15 13 13 12 12 12 14 16 15 14 15 13 12 11 10
Wind_Direction
349 348 349 359 7 10 13 14 15 15 15 14 14 13 13 11 10 9 7 6 4 3 1 1 360 359 358 357 356 354 352 351 349 347 341 332 318 310 308 307 292 271 256
343 348 351 3 9 12 14 15 15 15 15 15 14 13 12 11 9 9 7 5 3 1 360 358 357 356 355 354 353 351 349 348 347 344 336 323 312 307 305 303 295 284 284
357 354 356 7 10 13 15 16 16 16 15 15 14 13 11 10 8 8 6 4 2 0 358 357 355 353 352 351 350 348 347 345 344 340 329 323 321 313 308 303 295 282 272
5 1 3 10 12 15 16 16 16 16 16 15 13 12 11 9 7 6 5 2 1 359 357 355 353 351 349 348 346 345 344 343 342 334 329 328 322 317 316 308 299 287 274
15 10 9 13 15 17 18 17 17 16 15 14 13 11 9 7 5 4 3 0 359 357 355 354 352 349 347 345 343 342 342 341 337 328 329 328 322 321 321 313 304 294 281
22 17 15 17 18 20 20 18 17 16 14 13 10 8 7 5 2 1 -0 357 356 355 353 352 349 347 345 343 340 339 339 339 332 327 326 323 320 325 325 320 310 297 284
24 20 19 20 21 21 20 18 16 14 12 10 8 6 4 2 359 357 357 354 352 351 349 348 346 344 342 340 338 336 336 335 328 322 321 317 316 321 322 323 322 311 291
26 21 20 21 21 20 19 17 14 13 11 8 6 3 0 358 356 354 354 351 349 348 346 345 342 341 338 337 334 333 333 331 323 316 316 311 313 318 320 321 320 318 310
28 24 21 19 17 15 14 14 12 11 9 6 3 0 357 354 353 351 351 348 346 345 343 341 339 337 335 333 330 329 329 325 314 313 311 307 313 316 316 316 316 316 314
31 27 21 18 14 7 4 8 7 7 6 3 1 358 354 351 349 348 347 345 343 341 339 337 335 334 332 329 326 325 325 318 313 313 306 304 311 312 311 311 311 311 311
35 29 22 16 10 3 358 358 0 2 2 360 358 355 352 349 346 344 342 340 339 337 335 334 333 330 329 325 324 324 320 314 314 306 301 302 307 307 306 305 305 306 305
30 25 20 14 6 359 356 355 357 358 357 357 354 352 348 344 341 339 336 336 335 334 332 331 330 328 327 324 322 321 316 313 308 302 299 302 303 303 302 301 301 301 300
31 24 17 10 1 358 355 354 355 353 351 350 351 349 345 341 338 337 335 333 332 331 331 329 327 327 324 320 316 313 311 310 304 301 298 298 299 299 299 298 296 295 294
33 22 13 4 359 357 354 352 352 351 348 347 345 346 344 339 334 334 330 328 328 326 324 324 321 319 318 314 311 309 307 305 301 299 294 294 295 296 296 294 291 289 288
31 20 10 355 358 355 352 349 350 349 346 342 341 342 342 336 331 328 325 323 322 320 320 320 317 316 313 311 308 307 304 302 299 295 292 291 292 292 292 290 288 285 284
28 15 4 355 356 352 350 349 347 346 342 339 339 338 338 334 329 326 322 321 320 319 318 315 312 312 310 309 306 305 302 299 295 293 291 290 288 288 288 287 285 283 281
27 5 1 352 350 348 347 347 344 343 341 338 336 335 336 335 331 327 322 321 320 320 317 313 311 310 309 308 305 304 301 298 294 292 289 287 285 284 282 282 282 282 281
14 357 357 348 343 346 345 343 342 340 339 336 335 334 337 336 333 329 324 321 321 319 316 314 311 311 310 308 306 304 301 297 292 290 287 282 279 278 279 279 282 285 285
350 352 349 347 343 343 340 339 337 336 336 335 335 335 337 335 333 329 323 320 321 318 315 313 312 311 309 308 305 303 300 296 291 287 282 278 273 272 276 281 287 288 287
261 345 345 345 343 341 339 337 336 336 336 336 334 334 334 333 332 328 322 321 321 317 315 314 312 308 306 306 305 303 301 294 283 275 274 273 270 272 280 292 295 290 287
233 336 344 343 344 344 342 339 337 335 332 331 331 331 330 331 329 326 322 320 319 315 313 311 309 308 307 307 307 308 305 290 274 270 274 278 275 280 293 297 296 296 293
241 333 339 342 341 344 340 331 327 323 321 323 327 328 329 328 326 323 320 318 315 313 310 309 309 306 305 306 308 310 313 309 290 321 296 283 283 297 298 298 298 295 293
227 339 338 336 335 340 338 331 328 325 324 332 333 330 328 325 322 320 318 317 313 312 308 308 307 303 304 303 298 298 301 305 324 301 295 291 305 305 300 299 294 296 293
186 330 322 327 331 339 338 336 336 332 331 332 330 324 324 323 321 320 319 318 314 311 308 307 305 301 299 297 296 290 281 285 290 300 301 306 303 298 298 296 297 295 290
170 266 308 319 328 338 339 337 333 329 327 325 326 324 325 324 323 324 324 321 318 315 311 308 305 300 296 292 292 291 287 283 273 274 288 296 300 298 297 296 293 290 288
184 239 293 312 327 338 338 335 332 329 328 326 328 327 327 324 325 328 328 325 322 319 315 311 306 300 295 290 288 285 283 280 280 281 286 294 297 299 298 294 289 285 286
Height
1628 1625 1623 1621 1618 1615 1611 1608 1604 1600 1596 1593 1589 1585 1582 1579 1576 1573 1570 1567 1564 1562 1559 1557 1554 1552 1550 1549 1547 1546 1544 1543 1542 1541 1540 1540 1539 1539 1538 1538 1537 1537 1537
1627 1625 1623 1620 1617 1614 1610 1607 1603 1599 1595 1591 1588 1584 1581 1577 1574 1571 1568 1565 1562 1559 1556 1554 1551 1549 1547 1545 1543 1542 1541 1539 1538 1538 1538 1538 1537 1537 1536 1536 1536 1536 1535
1627 1625 1623 1620 1616 1613 1609 1605 1602 1598 1594 1590 1587 1583 1580 1576 1572 1569 1566 1563 1560 1557 1554 1551 1548 1546 1543 1541 1539 1537 1536 1535 1534 1534 1535 1534 1534 1534 1534 1534 1533 1533 1533
1627 1625 1622 1619 1616 1612 1608 1604 1601 1597 1593 1589 1586 1582 1578 1575 1571 1568 1564 1561 1558 1555 1552 1549 1546 1543 1540 1537 1535 1533 1531 1530 1529 1530 1530 1530 1530 1530 1530 1531 1530 1530 1531
1626 1624 1621 1618 1615 1611 1607 1603 1599 1596 1592 1588 1585 1581 1577 1574 1570 1566 1563 1559 1556 1553 1549 1546 1543 1540 1537 1534 1531 1529 1526 1524 1524 1525 1525 1525 1525 1525 1526 1526 1527 1527 1527
1626 1624 1621 1618 1614 1610 1606 1602 1598 1595 1591 1587 1584 1580 1576 1573 1569 1565 1561 1557 1554 1550 1547 1543 1540 1537 1533 1530 1527 1525 1522 1519 1519 1519 1519 1519 1520 1520 1520 1521 1522 1523 1523
1626 1623 1620 1617 1613 1609 1605 1601 1597 1594 1590 1586 1583 1579 1575 1571 1567 1563 1559 1556 1552 1548 1544 1540 1537 1533 1530 1527 1523 1520 1517 1515 1514 1513 1512 1513 1513 1513 1514 1515 1516 1517 1518
1625 1622 1619 1615 1611 1607 1604 1600 1596 1592 1589 1585 1581 1577 1573 1569 1565 1561 1557 1553 1549 1545 1541 1537 1533 1529 1525 1522 1519 1516 1513 1510 1508 1507 1506 1506 1506 1507 1507 1508 1509 1511 1512
1624 1621 1618 1614 1610 1606 1602 1598 1594 1591 1587 1583 1579 1575 1571 1567 1563 1558 1554 1550 1546 1541 1537 1533 1529 1524 1520 1517 1514 1511 1508 1505 1503 1501 1500 1499 1499 1499 1500 1501 1502 1504 1506
1623 1620 1617 1613 1609 1604 1600 1597 1593 1589 1585 1581 1577 1573 1568 1564 1560 1555 1551 1546 1542 1537 1533 1528 1524 1520 1516 1512 1508 1505 1502 1500 1498 1495 1494 1493 1491 1492 1493 1494 1495 1496 1498
1622 1619 1615 1611 1607 1603 1599 1596 1592 1588 1584 1580 1575 1571 1566 1561 1557 1552 1547 1542 1537 1532 1528 1523 1518 1514 1510 1506 1503 1499 1496 1494 1491 1489 1487 1486 1485 1484 1485 1486 1487 1488 1490
1621 1617 1614 1610 1605 1601 1598 1594 1591 1587 1582 1578 1573 1568 1563 1558 1554 1549 1544 1539 1533 1528 1523 1518 1513 1509 1504 1500 1497 1494 1490 1487 1484 1482 1481 1479 1478 1477 1476 1477 1478 1480 1482
1619 1616 1612 1608 1603 1599 1596 1592 1588 1584 1579 1575 1570 1565 1560 1555 1550 1544 1539 1534 1529 1523 1518 1513 1508 1503 1499 1494 1491 1488 1484 1480 1477 1475 1473 1472 1470 1469 1468 1468 1470 1472 1474
1618 1615 1611 1606 1601 1598 1594 1591 1586 1581 1577 1572 1567 1562 1556 1551 1546 1541 1535 1529 1524 1519 1513 1508 1503 1498 1493 1489 1485 1481 1478 1474 1471 1467 1465 1464 1463 1461 1460 1460 1461 1463 1466
1616 1613 1609 1604 1600 1596 1593 1589 1584 1580 1575 1570 1564 1559 1553 1547 1542 1536 1531 1525 1520 1514 1509 1503 1498 1493 1488 1483 1479 1475 1471 1467 1464 1460 1457 1456 1454 1453 1452 1452 1453 1455 1457
1614 1611 1607 1603 1599 1595 1591 1587 1583 1578 1573 1568 1562 1556 1550 1544 1538 1532 1526 1521 1515 1510 1505 1499 1494 1488 1483 1478 1473 1468 1464 1460 1456 1454 1450 1448 1446 1445 1444 1444 1445 1446 1448
1612 1609 1605 1601 1598 1594 1590 1586 1581 1576 1571 1565 1559 1553 1547 1541 1535 1529 1523 1517 1512 1506 1500 1495 1489 1484 1478 1472 1467 1462 1457 1453 1449 1446 1443 1440 1438 1437 1437 1436 1437 1438 1439
1610 1606 1603 1599 1596 1592 1588 1584 1579 1574 1568 1562 1556 1550 1544 1538 1532 1525 1519 1514 1508 1502 1497 1491 1485 1479 1473 1467 1461 1455 1451 1446 1442 1439 1436 1434 1432 1430 1430 1430 1429 1429 1430
1607 1604 1601 1597 1594 1590 1586 1582 1577 1571 1565 1559 1553 1547 1541 1535 1529 1523 1516 1511 1505 1499 1493 1488 1482 1476 1469 1463 1456 1450 1444 1439 1435 1431 1429 1427 1426 1425 1424 1424 1422 1421 1422
1604 1602 1598 1595 1591 1587 1583 1579 1574 1568 1563 1557 1550 1544 1538 1532 1525 1519 1514 1508 1502 1496 1490 1484 1478 1472 1466 1459 1452 1445 1438 1432 1427 1425 1423 1422 1421 1420 1419 1418 1416 1415 1415
1601 1599 1596 1592 1588 1584 1580 1575 1570 1565 1559 1553 1547 1541 1535 1529 1523 1517 1511 1505 1499 1493 1486 1480 1474 1468 1462 1456 1448 1440 1432 1426 1422 1420 1419 1417 1417 1415 1414 1412 1411 1410 1409
1599 1596 1593 1589 1585 1581 1577 1572 1566 1560 1555 1549 1544 1538 1532 1526 1520 1514 1508 1502 1496 1489 1482 1477 1470 1464 1457 1453 1447 1438 1430 1424 1418 1416 1414 1413 1412 1411 1409 1407 1405 1404 1403
1596 1593 1590 1586 1582 1578 1574 1569 1563 1558 1553 1548 1541 1535 1529 1523 1517 1511 1505 1499 1492 1486 1479 1472 1466 1460 1453 1448 1444 1440 1433 1424 1419 1413 1412 1410 1408 1406 1404 1402 1400 1398 1397
1592 1590 1586 1583 1579 1575 1571 1566 1560 1555 1549 1544 1537 1531 1526 1521 1515 1509 1502 1496 1489 1482 1475 1468 1462 1455 1449 1443 1439 1436 1432 1427 1423 1414 1409 1407 1404 1402 1399 1397 1394 1393 1392
1588 1586 1583 1580 1576 1572 1568 1563 1557 1552 1547 1541 1535 1529 1523 1518 1512 1506 1499 1493 1486 1479 1471 1464 1457 1450 1445 1439 1435 1431 1427 1424 1420 1416 1408 1403 1400 1398 1395 1392 1389 1387 1386
1584 1582 1580 1577 1574 1570 1565 1560 1555 1549 1544 1538 1532 1526 1520 1515 1509 1503 1497 1490 1483 1476 1468 1460 1452 1446 1440 1435 1430 1426 1422 1419 1416 1412 1407 1401 1396 1393 1390 1387 1384 1383 1381